Time,TemperatureF,DewpointF,PressureIn,WindDirection,WindDirectionDegrees,WindSpeedMPH,WindSpeedGustMPH,Humidity,HourlyPrecipIn,Conditions,Clouds,dailyrainin,SolarRadiationWatts/m^2,SoftwareType,DateUTC
2013-05-02 00:22:00,35.0,26.0,-100.00,West,268,0.0,0.0,70,0.00,,,0.00,0.000000,,2013-05-02 08:22:00,
2013-05-02 00:32:00,35.0,26.0,-100.00,West,268,0.0,0.0,70,0.00,,,0.00,0.000000,,2013-05-02 08:32:00,
2013-05-02 00:42:00,35.0,26.0,-100.00,West,268,0.0,0.0,70,0.00,,,0.00,0.000000,,2013-05-02 08:42:00,
2013-05-02 00:52:00,35.0,26.0,-100.00,West,268,0.0,0.0,70,0.00,,,0.00,0.000000,,2013-05-02 08:52:00,
2013-05-02 01:21:00,35.0,26.0,-100.00,NNW,338,0.0,0.0,70,0.00,,,0.00,0.000000,,2013-05-02 09:21:00,
2013-05-02 01:32:00,35.0,26.0,-100.00,NNW,338,0.0,0.0,70,0.00,,,0.00,0.000000,,2013-05-02 09:32:00,
2013-05-02 01:42:00,35.0,26.0,-100.00,NNW,338,0.0,0.0,70,0.00,,,0.00,0.000000,,2013-05-02 09:42:00,
2013-05-02 01:52:00,35.0,26.0,-100.00,NNW,338,0.0,0.0,70,0.00,,,0.00,0.000000,,2013-05-02 09:52:00,
2013-05-02 02:22:00,34.0,27.0,-100.00,NNE,27,0.0,0.0,75,0.00,,,0.00,0.000000,,2013-05-02 10:22:00,
2013-05-02 02:32:00,34.0,27.0,-100.00,NNE,27,0.0,0.0,75,0.00,,,0.00,0.000000,,2013-05-02 10:32:00,
2013-05-02 02:42:00,34.0,27.0,-100.00,NNE,27,0.0,0.0,75,0.00,,,0.00,0.000000,,2013-05-02 10:42:00,
2013-05-02 02:52:00,34.0,27.0,-100.00,NNE,27,0.0,0.0,75,0.00,,,0.00,0.000000,,2013-05-02 10:52:00,
2013-05-02 03:22:00,34.0,27.0,-100.00,NE,42,0.0,0.0,75,0.00,,,0.00,0.000000,,2013-05-02 11:22:00,
2013-05-02 03:32:00,34.0,27.0,-100.00,NE,42,0.0,0.0,75,0.00,,,0.00,0.000000,,2013-05-02 11:32:00,
2013-05-02 03:42:00,34.0,27.0,-100.00,NE,42,0.0,0.0,75,0.00,,,0.00,0.000000,,2013-05-02 11:42:00,
2013-05-02 03:52:00,34.0,27.0,-100.00,NE,42,0.0,0.0,75,0.00,,,0.00,0.000000,,2013-05-02 11:52:00,
2013-05-02 04:21:00,35.0,27.0,-100.00,NNE,17,0.0,0.0,73,0.00,,,0.00,0.000000,,2013-05-02 12:21:00,
2013-05-02 04:32:00,35.0,27.0,-100.00,NNE,17,0.0,0.0,73,0.00,,,0.00,0.000000,,2013-05-02 12:32:00,
2013-05-02 04:42:00,35.0,27.0,-100.00,NNE,17,0.0,0.0,73,0.00,,,0.00,0.000000,,2013-05-02 12:42:00,
2013-05-02 04:52:00,35.0,27.0,-100.00,NNE,17,0.0,0.0,73,0.00,,,0.00,0.000000,,2013-05-02 12:52:00,
2013-05-02 05:21:00,34.0,28.0,-100.00,North,356,0.0,0.0,79,0.00,,,0.00,0.000000,,2013-05-02 13:21:00,
2013-05-02 05:31:00,34.0,28.0,-100.00,North,356,0.0,0.0,79,0.00,,,0.00,0.000000,,2013-05-02 13:31:00,
2013-05-02 05:41:00,34.0,28.0,-100.00,North,356,0.0,0.0,79,0.00,,,0.00,0.000000,,2013-05-02 13:41:00,
2013-05-02 05:52:00,34.0,28.0,-100.00,North,356,0.0,0.0,79,0.00,,,0.00,0.000000,,2013-05-02 13:52:00,
2013-05-02 06:22:00,33.0,32.0,-100.00,NW,316,0.0,0.0,97,0.00,,,0.00,0.000000,,2013-05-02 14:22:00,
2013-05-02 06:32:00,33.0,32.0,-100.00,NW,316,0.0,0.0,97,0.00,,,0.00,0.000000,,2013-05-02 14:32:00,
2013-05-02 06:42:00,33.0,32.0,-100.00,NW,316,0.0,0.0,97,0.00,,,0.00,0.000000,,2013-05-02 14:42:00,
2013-05-02 06:52:00,33.0,32.0,-100.00,NW,316,0.0,0.0,97,0.00,,,0.00,0.000000,,2013-05-02 14:52:00,
2013-05-02 07:22:00,33.0,33.0,-100.00,NNW,332,0.0,0.0,100,0.01,,,0.01,8.000000,,2013-05-02 15:22:00,
2013-05-02 07:33:00,33.0,33.0,-100.00,NNW,332,0.0,0.0,100,0.01,,,0.01,8.000000,,2013-05-02 15:33:00,
2013-05-02 07:43:00,33.0,33.0,-100.00,NNW,332,0.0,0.0,100,0.01,,,0.01,8.000000,,2013-05-02 15:43:00,
2013-05-02 08:13:00,35.0,35.0,-100.00,NNW,339,1.0,3.0,99,0.00,,,-99.99,56.000000,,2013-05-02 16:13:00,
2013-05-02 08:22:00,35.0,35.0,-100.00,NNW,339,1.0,3.0,99,0.00,,,-99.99,56.000000,,2013-05-02 16:22:00,
2013-05-02 08:32:00,35.0,35.0,-100.00,NNW,339,1.0,3.0,99,0.00,,,-99.99,56.000000,,2013-05-02 16:32:00,
2013-05-02 08:43:00,35.0,35.0,-100.00,NNW,339,1.0,3.0,99,0.00,,,-99.99,56.000000,,2013-05-02 16:43:00,
2013-05-02 08:52:00,35.0,35.0,-100.00,NNW,339,1.0,3.0,99,0.00,,,-99.99,56.000000,,2013-05-02 16:52:00,
2013-05-02 09:12:00,36.0,35.0,-100.00,NW,323,1.0,4.0,96,0.00,,,0.01,105.000000,,2013-05-02 17:12:00,
2013-05-02 09:22:00,36.0,35.0,-100.00,NW,323,1.0,4.0,96,0.00,,,0.01,105.000000,,2013-05-02 17:22:00,
2013-05-02 09:31:00,36.0,35.0,-100.00,NW,323,1.0,4.0,96,0.00,,,0.01,105.000000,,2013-05-02 17:31:00,
2013-05-02 09:42:00,36.0,35.0,-100.00,NW,323,1.0,4.0,96,0.00,,,0.01,105.000000,,2013-05-02 17:42:00,
2013-05-02 09:51:00,36.0,35.0,-100.00,NW,323,1.0,4.0,96,0.00,,,0.01,105.000000,,2013-05-02 17:51:00,
2013-05-02 10:21:00,38.0,36.0,-100.00,North,353,2.0,6.0,94,0.00,,,0.01,157.000000,,2013-05-02 18:21:00,
2013-05-02 10:31:00,38.0,36.0,-100.00,North,353,2.0,6.0,94,0.00,,,0.01,157.000000,,2013-05-02 18:31:00,
2013-05-02 10:41:00,38.0,36.0,-100.00,North,353,2.0,6.0,94,0.00,,,0.01,157.000000,,2013-05-02 18:41:00,
2013-05-02 10:51:00,38.0,36.0,-100.00,North,353,2.0,6.0,94,0.00,,,0.01,157.000000,,2013-05-02 18:51:00,
2013-05-02 11:21:00,41.0,35.0,-100.00,North,355,1.0,6.0,80,0.00,,,0.01,297.000000,,2013-05-02 19:21:00,
2013-05-02 11:31:00,41.0,35.0,-100.00,North,355,1.0,6.0,80,0.00,,,0.01,297.000000,,2013-05-02 19:31:00,
2013-05-02 11:41:00,41.0,35.0,-100.00,North,355,1.0,6.0,80,0.00,,,0.01,297.000000,,2013-05-02 19:41:00,
2013-05-02 11:52:00,41.0,35.0,-100.00,North,355,1.0,6.0,80,0.00,,,0.01,297.000000,,2013-05-02 19:52:00,
2013-05-02 12:22:00,43.0,36.0,-100.00,NW,306,1.0,4.0,77,0.01,,,0.02,291.000000,,2013-05-02 20:22:00,
2013-05-02 12:32:00,43.0,36.0,-100.00,NW,306,1.0,4.0,77,0.01,,,0.02,291.000000,,2013-05-02 20:32:00,
2013-05-02 12:41:00,43.0,36.0,-100.00,NW,306,1.0,4.0,77,0.01,,,0.02,291.000000,,2013-05-02 20:41:00,
2013-05-02 12:52:00,43.0,36.0,-100.00,NW,306,1.0,4.0,77,0.01,,,0.02,291.000000,,2013-05-02 20:52:00,
2013-05-02 13:21:00,44.0,36.0,-100.00,SSE,164,2.0,5.0,74,0.00,,,0.02,286.000000,,2013-05-02 21:21:00,
2013-05-02 13:33:00,44.0,36.0,-100.00,SSE,164,2.0,5.0,74,0.00,,,0.02,286.000000,,2013-05-02 21:33:00,
2013-05-02 13:42:00,44.0,36.0,-100.00,SSE,164,2.0,5.0,74,0.00,,,0.02,286.000000,,2013-05-02 21:42:00,
2013-05-02 13:53:00,44.0,36.0,-100.00,SSE,164,2.0,5.0,74,0.00,,,0.02,286.000000,,2013-05-02 21:53:00,
2013-05-02 14:12:00,44.0,36.0,-100.00,South,169,1.0,4.0,74,0.00,,,0.02,216.000000,,2013-05-02 22:12:00,
2013-05-02 14:22:00,44.0,36.0,-100.00,South,169,1.0,4.0,74,0.00,,,0.02,216.000000,,2013-05-02 22:22:00,
2013-05-02 14:32:00,44.0,36.0,-100.00,South,169,1.0,4.0,74,0.00,,,0.02,216.000000,,2013-05-02 22:32:00,
2013-05-02 14:42:00,44.0,36.0,-100.00,South,169,1.0,4.0,74,0.00,,,0.02,216.000000,,2013-05-02 22:42:00,
2013-05-02 14:52:00,44.0,36.0,-100.00,South,169,1.0,4.0,74,0.00,,,0.02,216.000000,,2013-05-02 22:52:00,
2013-05-02 15:11:00,44.0,36.0,-100.00,SSW,194,3.0,6.0,73,0.00,,,0.02,239.000000,,2013-05-02 23:11:00,
2013-05-02 15:22:00,44.0,36.0,-100.00,SSW,194,3.0,6.0,73,0.00,,,0.02,239.000000,,2013-05-02 23:22:00,
2013-05-02 15:32:00,44.0,36.0,-100.00,SSW,194,3.0,6.0,73,0.00,,,0.02,239.000000,,2013-05-02 23:32:00,
2013-05-02 15:42:00,44.0,36.0,-100.00,SSW,194,3.0,6.0,73,0.00,,,0.02,239.000000,,2013-05-02 23:42:00,
2013-05-02 15:51:00,44.0,36.0,-100.00,SSW,194,3.0,6.0,73,0.00,,,0.02,239.000000,,2013-05-02 23:51:00,
2013-05-02 16:21:00,44.0,37.0,-100.00,South,189,2.0,5.0,77,0.00,,,0.02,233.000000,,2013-05-03 00:21:00,
2013-05-02 16:31:00,44.0,37.0,-100.00,South,189,2.0,5.0,77,0.00,,,0.02,233.000000,,2013-05-03 00:31:00,
2013-05-02 16:41:00,44.0,37.0,-100.00,South,189,2.0,5.0,77,0.00,,,0.02,233.000000,,2013-05-03 00:41:00,
2013-05-02 16:52:00,44.0,37.0,-100.00,South,189,2.0,5.0,77,0.00,,,0.02,233.000000,,2013-05-03 00:52:00,
2013-05-02 17:11:00,44.0,39.0,-100.00,WSW,250,2.0,4.0,81,0.01,,,0.03,209.000000,,2013-05-03 01:11:00,
2013-05-02 17:21:00,44.0,39.0,-100.00,WSW,250,2.0,4.0,81,0.01,,,0.03,209.000000,,2013-05-03 01:21:00,
2013-05-02 17:31:00,44.0,39.0,-100.00,WSW,250,2.0,4.0,81,0.01,,,0.03,209.000000,,2013-05-03 01:31:00,
2013-05-02 17:41:00,44.0,39.0,-100.00,WSW,250,2.0,4.0,81,0.01,,,0.03,209.000000,,2013-05-03 01:41:00,
2013-05-02 17:51:00,44.0,39.0,-100.00,WSW,250,2.0,4.0,81,0.01,,,0.03,209.000000,,2013-05-03 01:51:00,
2013-05-02 18:11:00,43.0,38.0,-100.00,SW,217,1.0,4.0,82,0.01,,,0.04,200.000000,,2013-05-03 02:11:00,
2013-05-02 18:21:00,43.0,38.0,-100.00,SW,217,1.0,4.0,82,0.01,,,0.04,200.000000,,2013-05-03 02:21:00,
2013-05-02 18:31:00,43.0,38.0,-100.00,SW,217,1.0,4.0,82,0.01,,,0.04,200.000000,,2013-05-03 02:31:00,
2013-05-02 18:41:00,43.0,38.0,-100.00,SW,217,1.0,4.0,82,0.01,,,0.04,200.000000,,2013-05-03 02:41:00,
2013-05-02 18:52:00,43.0,38.0,-100.00,SW,217,1.0,4.0,82,0.01,,,0.04,200.000000,,2013-05-03 02:52:00,
2013-05-02 19:21:00,42.0,40.0,-100.00,SW,236,0.0,3.0,91,0.02,,,0.06,103.000000,,2013-05-03 03:21:00,
2013-05-02 19:33:00,42.0,40.0,-100.00,SW,236,0.0,3.0,91,0.02,,,0.06,103.000000,,2013-05-03 03:33:00,
2013-05-02 19:42:00,42.0,40.0,-100.00,SW,236,0.0,3.0,91,0.02,,,0.06,103.000000,,2013-05-03 03:42:00,
2013-05-02 19:52:00,42.0,40.0,-100.00,SW,236,0.0,3.0,91,0.02,,,0.06,103.000000,,2013-05-03 03:52:00,
2013-05-02 20:12:00,41.0,41.0,-100.00,West,276,0.0,2.0,100,0.03,,,0.09,59.000000,,2013-05-03 04:12:00,
2013-05-02 20:22:00,41.0,41.0,-100.00,West,276,0.0,2.0,100,0.03,,,0.09,59.000000,,2013-05-03 04:22:00,
2013-05-02 20:32:00,41.0,41.0,-100.00,West,276,0.0,2.0,100,0.03,,,0.09,59.000000,,2013-05-03 04:32:00,
2013-05-02 20:42:00,41.0,41.0,-100.00,West,276,0.0,2.0,100,0.03,,,0.09,59.000000,,2013-05-03 04:42:00,
2013-05-02 20:52:00,41.0,41.0,-100.00,West,276,0.0,2.0,100,0.03,,,0.09,59.000000,,2013-05-03 04:52:00,
2013-05-02 21:21:00,39.0,39.0,-100.00,NW,326,1.0,4.0,100,0.03,,,0.12,25.000000,,2013-05-03 05:21:00,
2013-05-02 21:32:00,39.0,39.0,-100.00,NW,326,1.0,4.0,100,0.03,,,0.12,25.000000,,2013-05-03 05:32:00,
2013-05-02 21:42:00,39.0,39.0,-100.00,NW,326,1.0,4.0,100,0.03,,,0.12,25.000000,,2013-05-03 05:42:00,
2013-05-02 21:52:00,39.0,39.0,-100.00,NW,326,1.0,4.0,100,0.03,,,0.12,25.000000,,2013-05-03 05:52:00,
2013-05-02 22:11:00,37.0,37.0,-100.00,NNW,342,3.0,9.0,100,0.00,,,0.12,8.000000,,2013-05-03 06:11:00,
2013-05-02 22:21:00,37.0,37.0,-100.00,NNW,342,3.0,9.0,100,0.00,,,0.12,8.000000,,2013-05-03 06:21:00,
2013-05-02 22:32:00,37.0,37.0,-100.00,NNW,342,3.0,9.0,100,0.00,,,0.12,8.000000,,2013-05-03 06:32:00,
2013-05-02 22:42:00,37.0,37.0,-100.00,NNW,342,3.0,9.0,100,0.00,,,0.12,8.000000,,2013-05-03 06:42:00,
2013-05-02 22:51:00,37.0,37.0,-100.00,NNW,342,3.0,9.0,100,0.00,,,0.12,8.000000,,2013-05-03 06:51:00,
2013-05-02 23:21:00,36.0,36.0,-100.00,NW,311,2.0,9.0,100,0.00,,,0.12,0.000000,,2013-05-03 07:21:00,
2013-05-02 23:31:00,36.0,36.0,-100.00,NW,311,2.0,9.0,100,0.00,,,0.12,0.000000,,2013-05-03 07:31:00,
2013-05-02 23:42:00,36.0,36.0,-100.00,NW,311,2.0,9.0,100,0.00,,,0.12,0.000000,,2013-05-03 07:42:00,
2013-05-02 23:52:00,36.0,36.0,-100.00,NW,311,2.0,9.0,100,0.00,,,0.12,0.000000,,2013-05-03 07:52:00,